Location: Helsinki
(60.1699°N, 24.9384°E)
Time: 10:13:44
(UTC+02:00)

Vanguard 2 Rocket - Pass Details

Date: 25 September 2023
Orbit: 552 x 3312 km, 32.9° (Epoch: 05 December)

Event Time Altitude Azimuth Distance (km) Brightness Sun altitude
Rises 15:40:05 0° 244° (WSW) 7,222 12.6 22.6°
Reaches altitude 10° 15:46:15 10° 234° (SW) 6,268 13.0 22.1°
Maximum altitude 16:00:13 25° 190° (S) 4,799 11.7 20.9°
Drops below altitude 10° 16:12:00 10° 143° (SE) 5,223 10.9 19.8°
Sets 16:16:30 0° 131° (SE) 5,837 10.9 19.3°
